Wind_Speed
10 10 10 10 10 11 11 10 10 10 10 8 8 8 7 7 7 6 6 6 6 5 5 4 4 5 6 6 7 8 8 9 10 9 10 10 10 10 11 11 11 11 10
10 9 9 9 10 11 11 10 11 10 10 9 8 8 9 8 8 8 7 6 6 7 6 6 6 7 7 7 8 8 9 9 11 11 11 10 11 11 12 12 13 13 12
9 9 9 9 10 10 10 10 10 10 10 9 9 9 9 9 9 8 7 6 7 7 8 8 7 7 7 8 8 9 9 9 10 11 11 11 12 13 14 14 14 15 14
9 9 9 9 9 9 9 10 11 11 11 9 9 9 9 10 9 8 7 7 7 7 8 9 9 8 8 8 8 9 10 10 11 12 12 12 13 14 15 15 15 15 16
8 9 9 9 8 8 9 10 11 11 11 10 9 9 9 9 9 8 8 7 7 8 8 9 10 10 10 9 9 9 10 11 11 11 12 13 14 15 16 16 17 17 18
9 8 9 8 8 9 10 10 11 12 12 11 10 9 9 9 9 9 9 8 8 8 9 10 10 11 11 10 9 9 10 11 12 12 13 14 15 16 16 17 18 19 19
9 8 8 8 8 9 10 11 12 12 11 11 10 10 9 9 10 10 9 9 8 9 10 10 11 11 11 11 10 10 10 11 11 12 13 14 15 16 17 17 18 19 19
9 8 8 8 8 10 11 12 11 11 11 11 10 10 9 9 9 10 9 9 10 10 10 11 11 12 11 12 12 11 10 11 11 12 13 14 15 16 17 17 18 18 19
8 8 8 8 9 10 11 11 11 11 11 10 9 9 8 9 9 9 9 10 11 12 12 12 12 12 12 12 12 12 11 11 12 12 13 13 15 16 16 17 17 18 19
8 8 8 9 9 10 11 11 11 10 10 9 9 9 9 9 9 9 10 11 12 12 12 13 13 12 12 12 12 12 12 12 12 13 13 14 15 16 16 17 18 19 19
9 9 9 9 10 10 10 10 10 10 10 9 9 10 10 10 10 10 11 11 12 13 13 13 13 13 13 13 13 12 12 12 12 13 14 14 15 16 17 17 18 19 19
10 10 10 9 9 10 10 10 10 10 10 10 10 10 10 11 11 11 12 12 13 13 14 14 14 13 14 13 14 13 13 13 13 13 14 14 15 16 17 17 18 19 20
11 12 11 10 10 10 11 11 10 10 10 10 10 11 11 12 12 13 14 13 13 14 14 15 14 14 14 14 14 13 13 12 13 13 14 14 15 16 17 18 18 18 19
13 12 12 11 11 11 11 11 10 10 10 11 11 11 12 13 13 14 15 14 14 14 15 15 15 14 14 14 14 14 13 13 13 14 14 15 16 16 16 17 18 18 18
14 13 13 12 11 11 11 11 10 11 11 11 11 12 13 14 14 15 15 15 15 15 15 16 16 15 15 15 14 14 14 14 14 15 15 16 16 17 17 18 18 18 19
16 14 14 13 12 12 12 11 11 12 12 12 13 13 14 15 15 16 16 15 15 15 16 16 16 16 16 16 16 16 16 15 15 16 16 17 18 18 18 18 19 20 20
17 16 15 14 14 13 13 12 12 13 13 13 14 15 15 16 16 17 17 17 16 16 16 16 17 16 16 16 16 17 16 16 16 17 17 18 18 18 19 20 21 22 22
18 17 17 16 16 15 15 14 14 14 14 15 15 16 16 16 17 18 18 18 18 18 18 17 17 17 17 17 18 17 17 17 17 18 18 19 19 19 20 21 22 22 23
19 19 18 18 17 17 16 16 17 16 16 16 16 17 17 17 18 19 19 18 18 18 18 17 17 17 18 18 18 18 18 18 18 19 19 20 21 21 21 22 23 24 24
21 20 20 19 18 18 18 18 18 18 18 18 18 17 18 18 19 19 19 19 19 18 18 18 19 19 19 18 18 18 19 19 19 20 21 21 22 22 22 23 24 24 25
23 22 22 21 20 20 19 19 19 20 20 19 19 19 19 19 19 19 20 20 20 19 19 20 20 19 19 19 19 20 20 20 21 22 22 23 23 24 24 24 25 25 26
24 23 23 22 21 21 21 21 21 21 21 20 20 20 19 19 19 20 20 20 20 20 20 21 20 20 20 20 21 21 22 22 23 23 23 24 24 25 25 26 27 27 27
24 24 24 23 23 23 22 23 22 21 21 21 21 20 20 20 20 21 21 22 21 21 21 21 22 22 22 22 23 23 23 24 24 24 25 25 26 26 27 27 27 28 28
25 25 25 24 24 24 24 23 23 22 21 21 21 21 21 21 21 22 23 23 23 22 22 22 23 23 24 24 24 25 25 25 25 26 26 26 26 27 28 27 27 27 27
26 26 26 26 26 25 25 24 23 23 22 22 22 22 22 22 23 24 24 24 24 23 24 24 24 25 25 25 26 26 26 26 27 27 27 27 27 27 27 27 27 27 27
27 27 28 28 27 26 26 25 24 24 24 23 23 23 23 23 24 25 25 24 25 25 25 25 26 26 26 26 27 27 27 28 28 28 28 27 27 27 27 27 27 27 28
Wind_Direction
11 12 13 10 12 11 11 11 11 6 3 3 6 5 357 352 354 349 347 339 336 330 324 311 304 296 290 276 266 261 260 257 252 252 254 257 258 259 262 262 263 265 268
4 6 6 3 2 6 10 8 7 2 359 356 352 352 354 350 347 340 343 347 339 334 332 325 315 303 297 286 273 267 265 263 259 256 254 257 260 261 263 264 264 267 271
351 353 352 353 356 360 7 8 5 4 1 354 350 348 347 347 345 341 334 336 336 335 334 334 326 314 304 295 286 276 276 273 267 260 259 260 263 265 266 267 268 269 271
344 342 340 343 350 357 0 0 359 356 355 352 350 348 350 350 346 342 335 332 332 330 331 331 330 325 314 305 297 288 283 281 277 268 261 262 264 268 270 270 271 272 274
340 338 336 339 341 350 350 348 346 347 348 352 355 354 352 352 352 347 344 336 332 331 329 329 328 327 319 309 298 287 281 281 279 272 266 265 266 268 269 269 271 273 275
333 332 333 333 334 339 340 339 338 339 341 344 347 348 347 348 346 341 338 334 331 328 328 328 327 327 325 321 312 296 288 283 277 273 272 270 268 270 271 270 272 274 276
324 325 326 329 331 333 332 331 332 334 338 342 342 339 339 340 342 340 338 333 330 330 329 328 326 326 327 322 315 305 296 291 283 277 276 275 273 273 273 272 274 276 278
318 324 322 322 328 331 330 329 331 332 334 339 341 338 335 337 339 340 341 340 339 339 335 331 327 325 325 320 315 309 300 294 289 284 283 281 279 278 276 276 277 279 279
309 314 316 320 323 325 327 328 330 330 332 336 338 339 337 337 337 338 338 338 338 336 333 330 328 327 325 322 315 311 304 297 292 287 286 284 285 284 280 277 278 280 280
301 306 310 317 323 324 325 327 330 330 331 329 333 335 335 331 332 335 336 338 338 336 332 327 326 326 326 324 318 311 307 301 295 291 288 288 288 289 289 285 282 282 281
293 301 309 314 320 323 324 323 328 329 328 327 326 331 331 330 330 330 334 337 337 336 334 331 328 325 323 321 316 312 307 303 301 297 294 293 292 292 292 291 288 285 283
289 296 303 307 314 320 324 325 324 328 328 328 325 326 328 328 327 329 330 330 330 330 329 329 329 327 324 322 319 315 310 306 304 302 300 298 295 294 295 293 292 288 286
285 291 294 298 304 312 318 321 322 327 328 327 326 326 326 326 326 327 327 326 324 325 326 326 324 322 320 321 318 314 310 307 306 306 305 304 302 301 299 297 296 294 292
278 284 288 291 297 304 313 318 317 319 322 323 325 326 327 328 326 324 323 321 320 319 321 322 321 319 318 318 318 314 311 309 308 309 309 307 308 308 307 305 301 297 295
270 276 281 283 290 298 307 313 314 316 318 319 322 324 325 324 323 323 321 319 317 316 317 319 316 315 317 317 316 313 311 310 310 309 309 308 307 307 306 306 305 303 301
264 268 273 276 284 293 300 307 308 309 311 314 316 318 320 321 321 322 320 316 315 315 316 315 315 314 315 314 315 314 313 311 310 310 309 308 308 307 307 307 306 305 304
260 261 266 271 279 289 295 299 301 302 303 306 310 312 315 316 317 319 319 316 314 313 314 313 312 312 312 313 315 314 314 313 311 310 308 309 311 309 307 306 306 305 303
259 261 264 268 275 284 289 292 293 295 298 300 305 308 311 312 314 316 318 315 313 311 312 311 309 308 308 309 311 312 312 311 310 308 307 309 310 310 308 306 306 307 306
257 261 264 267 273 279 283 287 288 289 292 296 302 307 309 309 311 314 315 315 312 310 310 310 310 309 308 307 307 308 310 310 308 309 309 310 308 308 308 309 309 310 309
255 260 264 268 272 276 281 283 284 285 288 292 297 302 305 306 309 312 313 313 312 309 308 308 308 308 307 306 306 307 308 308 308 309 309 310 309 309 310 310 310 310 310
253 258 262 266 270 274 281 282 282 283 284 287 292 297 300 303 306 309 311 311 310 308 307 308 308 308 308 306 307 308 308 309 308 307 307 309 310 310 310 311 311 311 310
253 256 260 264 267 272 277 280 281 283 284 286 291 294 297 300 302 304 307 309 309 307 305 307 309 309 309 308 309 308 307 307 307 307 307 308 308 309 311 311 311 311 311
253 256 259 262 265 271 276 278 279 280 281 285 289 292 294 297 298 300 302 304 305 306 307 307 308 307 307 307 306 306 305 306 307 307 306 306 306 307 309 310 311 311 311
252 255 258 261 265 271 274 276 276 277 279 282 285 289 290 293 295 297 298 299 302 305 307 307 306 305 305 305 305 304 304 305 305 306 306 307 307 308 309 310 310 311 312
251 253 257 261 266 269 272 275 276 277 279 280 284 287 288 290 293 296 297 297 300 302 302 303 305 304 303 304 304 305 304 304 305 305 306 306 308 308 308 309 309 310 311
252 255 258 261 264 267 270 273 275 277 278 280 281 283 284 287 290 292 295 296 297 299 300 300 302 303 303 302 302 304 304 304 304 305 305 306 308 309 309 309 310 311 311
Height
5930 5928 5926 5924 5922 5921 5919 5917 5916 5914 5912 5911 5909 5908 5907 5906 5905 5904 5903 5902 5901 5900 5900 5899 5899 5898 5898 5897 5897 5897 5897 5897 5897 5898 5898 5898 5898 5898 5898 5898 5898 5898 5898
5930 5928 5926 5924 5923 5922 5920 5918 5916 5914 5912 5910 5908 5908 5907 5906 5904 5903 5902 5901 5901 5900 5899 5898 5897 5897 5896 5896 5895 5895 5895 5895 5895 5895 5895 5896 5897 5896 5896 5896 5896 5896 5895
5930 5929 5927 5925 5924 5922 5920 5918 5916 5914 5912 5910 5908 5907 5907 5906 5904 5903 5902 5901 5900 5899 5898 5897 5896 5895 5894 5894 5893 5893 5893 5892 5892 5892 5893 5893 5894 5893 5893 5893 5893 5893 5892
5930 5929 5927 5925 5924 5922 5921 5919 5917 5915 5913 5910 5909 5908 5907 5905 5904 5902 5901 5900 5899 5898 5897 5896 5895 5893 5892 5892 5891 5891 5890 5890 5890 5890 5890 5890 5890 5890 5890 5890 5889 5889 5889
5930 5928 5927 5925 5924 5922 5921 5919 5917 5915 5913 5911 5909 5907 5906 5904 5903 5902 5901 5900 5899 5898 5896 5895 5893 5892 5891 5890 5889 5889 5888 5888 5887 5887 5887 5887 5887 5886 5887 5886 5886 5885 5884
5930 5928 5927 5925 5923 5922 5920 5919 5917 5915 5913 5911 5909 5907 5906 5904 5903 5902 5900 5899 5898 5896 5895 5894 5892 5891 5889 5888 5887 5886 5885 5885 5884 5884 5884 5883 5883 5883 5883 5882 5882 5881 5880
5929 5927 5926 5924 5923 5921 5920 5918 5916 5914 5912 5911 5908 5907 5905 5904 5902 5901 5899 5897 5896 5895 5894 5892 5891 5889 5887 5886 5885 5884 5883 5882 5881 5881 5880 5880 5880 5879 5879 5878 5877 5876 5875
5928 5926 5925 5924 5922 5921 5919 5917 5916 5914 5912 5910 5908 5906 5904 5903 5901 5900 5898 5896 5895 5894 5892 5891 5889 5888 5886 5884 5882 5881 5880 5879 5878 5878 5877 5877 5876 5875 5874 5874 5873 5872 5871
5927 5925 5924 5923 5922 5920 5919 5917 5915 5913 5911 5909 5907 5905 5904 5902 5901 5899 5897 5896 5894 5892 5891 5889 5887 5886 5884 5882 5880 5879 5877 5876 5875 5875 5874 5873 5872 5871 5870 5869 5869 5868 5867
5925 5924 5923 5922 5920 5919 5917 5916 5914 5912 5910 5908 5906 5905 5903 5901 5900 5898 5896 5894 5893 5891 5889 5887 5885 5884 5882 5880 5878 5876 5875 5874 5873 5872 5871 5870 5869 5868 5866 5865 5864 5863 5862
5923 5922 5921 5920 5919 5917 5916 5914 5913 5911 5909 5907 5905 5904 5902 5900 5899 5897 5895 5893 5891 5889 5887 5885 5883 5881 5879 5877 5875 5873 5872 5871 5870 5869 5868 5866 5865 5864 5862 5861 5859 5858 5857
5921 5920 5919 5918 5917 5916 5914 5913 5911 5909 5907 5906 5904 5902 5901 5899 5897 5895 5894 5892 5890 5888 5885 5883 5881 5879 5877 5875 5873 5871 5869 5868 5867 5866 5864 5863 5862 5860 5858 5857 5855 5853 5852
5919 5918 5917 5916 5915 5914 5913 5911 5909 5908 5906 5904 5903 5901 5899 5898 5896 5894 5892 5890 5888 5886 5883 5881 5879 5877 5874 5872 5870 5868 5867 5865 5864 5863 5861 5860 5858 5856 5854 5852 5851 5849 5848
5916 5915 5914 5913 5913 5912 5911 5909 5908 5906 5905 5903 5901 5899 5897 5895 5894 5891 5889 5887 5885 5883 5881 5879 5877 5874 5872 5870 5868 5866 5864 5863 5861 5860 5858 5856 5854 5853 5851 5849 5847 5845 5843
5912 5912 5912 5911 5910 5910 5908 5907 5906 5904 5903 5901 5899 5897 5895 5893 5891 5889 5887 5885 5882 5880 5878 5876 5874 5872 5870 5868 5865 5863 5862 5860 5858 5857 5855 5853 5851 5849 5847 5845 5842 5840 5838
5909 5909 5909 5908 5908 5907 5906 5905 5903 5902 5901 5899 5897 5895 5893 5891 5889 5886 5884 5882 5879 5877 5875 5873 5871 5869 5867 5865 5863 5861 5859 5857 5855 5853 5851 5849 5847 5845 5843 5841 5838 5836 5834
5905 5905 5905 5905 5905 5904 5903 5902 5901 5899 5898 5896 5894 5892 5890 5888 5886 5883 5881 5878 5876 5874 5872 5870 5867 5865 5863 5861 5859 5857 5855 5853 5851 5850 5847 5845 5843 5841 5839 5836 5834 5832 5829
5901 5901 5901 5901 5901 5901 5900 5899 5898 5896 5895 5893 5891 5889 5887 5884 5882 5880 5877 5875 5872 5870 5868 5866 5864 5862 5860 5858 5856 5854 5852 5850 5848 5846 5844 5841 5839 5836 5834 5832 5829 5826 5824
5896 5897 5897 5897 5897 5897 5896 5895 5894 5893 5891 5889 5888 5886 5883 5881 5879 5876 5874 5871 5869 5867 5865 5862 5860 5858 5856 5854 5852 5850 5848 5846 5844 5842 5839 5837 5834 5832 5829 5827 5824 5821 5818
5891 5892 5892 5893 5893 5892 5892 5891 5890 5888 5887 5885 5884 5882 5880 5877 5875 5873 5870 5868 5865 5863 5861 5859 5857 5854 5852 5850 5848 5846 5844 5841 5839 5837 5835 5832 5829 5827 5824 5821 5818 5815 5812
5885 5886 5887 5887 5888 5887 5887 5886 5885 5884 5882 5881 5879 5877 5875 5873 5871 5869 5866 5864 5861 5859 5857 5855 5853 5850 5848 5846 5844 5841 5839 5837 5834 5832 5829 5827 5824 5821 5818 5815 5812 5809 5806
5879 5880 5881 5882 5882 5882 5882 5881 5880 5879 5877 5876 5874 5872 5871 5869 5867 5865 5862 5860 5857 5855 5853 5850 5848 5846 5844 5841 5839 5837 5834 5832 5829 5826 5824 5821 5818 5815 5812 5809 5806 5802 5799
5873 5874 5875 5876 5876 5876 5875 5875 5874 5873 5872 5871 5869 5867 5866 5864 5862 5860 5858 5856 5853 5851 5848 5846 5843 5841 5839 5836 5834 5831 5829 5826 5824 5821 5818 5815 5812 5809 5806 5803 5799 5796 5792
5867 5868 5869 5869 5870 5869 5869 5868 5867 5867 5866 5865 5864 5862 5861 5859 5857 5855 5853 5850 5848 5846 5843 5841 5838 5836 5833 5831 5828 5826 5823 5820 5818 5815 5812 5809 5806 5803 5799 5796 5792 5789 5785
5860 5861 5862 5862 5863 5863 5862 5862 5861 5861 5860 5859 5858 5857 5855 5853 5851 5849 5847 5844 5843 5840 5838 5836 5833 5830 5828 5825 5822 5820 5817 5814 5812 5808 5805 5802 5799 5796 5792 5789 5786 5782 5779
5853 5854 5855 5855 5856 5856 5856 5855 5855 5854 5854 5852 5851 5850 5848 5846 5844 5842 5841 5838 5836 5834 5832 5829 5827 5824 5821 5818 5816 5813 5811 5808 5805 5802 5799 5795 5792 5789 5785 5782 5779 5775 5772